Weather in Dudor

Russia / Vladimir Oblast     55°31′57″N   40°54′20″E
temp.,
°C
wind,
m/s
gust,
m/s
humid.,
%
clouds,
%
prec.,
mm/h
press.,
hPa
HPBL,
m
29 january, sat
sat2900:00−9sse41194100 0.3 1009420
03:00−9sse41094100 0.6 1008384
06:00−9se3895100 0.3 1007322
09:00−8se3795100 0.9 1007258
12:00−6sse2492100 0.3 1007332
15:00−5s2390100 0.4 1006440
18:00−6sse249895 0.1 1006102
21:00−6ssw2597100 0.7 1006163
30 january, sun
sun3000:00−8ssw119894 0.3 100532
03:00−10ssw119897 0.4 100410
06:00−5s1497100 0.1 1002141
09:00−4sse3797100 0.2 1000327
12:00−2s499396 0.1 1000597
15:00−3s4991100 0.2 999674
18:00−6sse41193100 0.0 999448
21:00−7sse41294100 0.1 999488
31 january, mon
mon3100:00−7sse41294100 0.2 999523
03:00−6se41194100 0.6 998515
06:00−6se41195100 0.3 998469
09:00−5se41094100 0.7 998455
12:00−2sse499495 0.2 997502
15:00−1sse489098 0.4 996937
18:00−2se51296100 0.2 996728
21:00−1se51297100 1.1 994861
1 february, tue
tue100:00−1sse51195100 0.8 993740
03:00−2s51196100 1.9 992777
06:00−3s51294100 0.5 993723
09:00−4ssw51294100 0.8 995636
12:00−3sw51293100 0.3 997737
15:00−4ssw51093100 0.4 998765
18:00−5sw51292100 0.2 1000660
21:00−5sw51293100 0.3 1001668
2 february, wed
wed200:00−7sw51193100 0.1 1004454
03:00−9ssw41095100 0.2 1005339
06:00−9ssw31095100 0.1 1006397
09:00−10s3996100 0.1 1007286
12:00−8s3694100 0.0 1007274
15:00−6sse2592100 0.1 1005410
18:00−6ene1297100 0.7 100578
21:00−6wnw1397100 1.6 1005105